Regional Weather Roundup
Issued by NWS

Home | Current Version | Previous Version | Text Only | Print | Product List | Glossary Off
Versions: 1 2 3 4 5 6 7 8 9 10 11 12 13 14 15 16 17 18 19 20 21 22 23 24 25 26 27 28 29 30 31 32 33 34 35 36 37 38 39 40 41 42 43 44 45 46 47 48 49 50

000
ASUS43 KDTX 040501
RWRMI
MICHIGAN HOURLY REGIONAL WEATHER ROUNDUP
NATIONAL WEATHER SERVICE DETROIT/PONTIAC MI
100 AM EDT SAT JUL 04 2015

NOTE: "FAIR" INDICATES FEW OR NO CLOUDS BELOW 12,000 FEET WITH NO
SIGNIFICANT WEATHER AND/OR OBSTRUCTION TO VISIBILITY.

MIZ047>049-052>055-059>063-066>070-074>076-081>083-040600-
SOUTHEAST LOWER MICHIGAN

CITY           SKY/WX    TMP DP  RH WIND       PRES   REMARKS
ADRIAN         CLEAR     57  55  93 CALM      29.95S
ALMA           CLEAR     54  52  95 CALM      29.95R
ANN ARBOR      CLEAR     52  52 100 W3        29.94S FOG
BAD AXE        CLEAR     53  49  88 CALM      29.94S
CARO           CLEAR     50  49  97 CALM      29.94S
DETROIT CITY   CLEAR     62  54  74 CALM      29.93S
DETROIT        PTCLDY    62  56  80 CALM      29.94S
FLINT          CLEAR     53  48  83 CALM      29.94S
GROSSE ILE     CLEAR     61  55  82 CALM      29.93R
HILLSDALE      CLEAR     57  57 100 CALM      29.96R
HOWELL         CLEAR     55  52  88 SE7       29.95S

CITY           SKY/WX    TMP DP  RH WIND       PRES   REMARKS
JACKSON        CLEAR     55  53  93 CALM      29.95R
LAMBERTVILLE   CLEAR     57  54  89 CALM      29.95S
LANSING        CLEAR     57  52  83 CALM      29.95S
LAPEER         FAIR      52  50  93 CALM      29.94F
MASON          CLEAR     54  52  95 CALM      29.95R
MONROE         CLEAR     57  56  96 CALM      29.93S
MT. CLEMENS    CLEAR     57  54  88 N2        29.91S
PONTIAC        CLEAR     58  53  84 CALM      29.94R HAZE
PORT HOPE        N/A     57  50  77 SW5       29.92S
PORT HURON       N/A     54  54 100 CALM      29.94S FOG
TRI CITIES     CLEAR     62  48  60 CALM      29.95R
MIDLAND        FAIR      54  51  90 CALM      29.93S
TROY           CLEAR     63  53  69 CALM      29.95S
SAGINAW HB     CLEAR     55  46  71 CALM      29.94R
$$
MIZ043>046-050>051-056>058-064>065-071>073-077>080-040600-
SOUTHWEST LOWER MICHIGAN

CITY           SKY/WX    TMP DP  RH WIND       PRES   REMARKS
BATTLE CREEK   CLEAR     60  55  83 CALM      29.96R
BENTON HARBOR  CLEAR     55  53  93 CALM      29.95R FOG
BIG RAPIDS     CLEAR     55  50  83 CALM      29.95S
COLDWATER      CLEAR     57  55  95 CALM      29.95R
FREMONT        FAIR      55  51  88 CALM      29.95S
HOLLAND        CLEAR     57  53  86 CALM      29.96R
GRAND RAPIDS   CLEAR     62  51  67 CALM      29.95S
IONIA          FAIR      57  54  88 CALM      29.94S
KALAMAZOO      CLEAR     59  54  83 CALM      29.96R
LUDINGTON      CLEAR     55  52  89 CALM      29.94S
MARSHALL       CLEAR     56  55  94 CALM      29.95R
MOUNT PLEASANT CLEAR     54  52  90 CALM      29.94S
MUSKEGON       CLEAR     54  50  86 CALM      29.96R
SOUTH HAVEN    CLEAR     55  53  93 CALM      29.95S FOG
$$
MIZ016>042-040600-
NORTHERN LOWER MICHIGAN

CITY           SKY/WX    TMP DP  RH WIND       PRES   REMARKS
ALPENA         PTCLDY    63  53  70 CALM      29.93R
BEAVER ISLAND  PTCLDY    60  47  60 SW9       29.90R
BELLAIRE       CLOUDY    58  55  89 CALM      29.92S
CADILLAC       PTCLDY    54  51  90 CALM      29.95R
CHARLEVOIX     MOCLDY    65  48  53 S3        29.93S
FRANKFORT      CLOUDY    66  44  45 CALM      29.92S
GAYLORD        CLOUDY    59  55  87 CALM      29.93S
GRAYLING       MOCLDY    57  54  90 CALM      29.95S
HARBOR SPRINGS CLOUDY    61  55  81 CALM      29.91S
HOUGHTON LAKE  CLOUDY    59  55  87 CALM      29.95R
MANISTEE       CLEAR    N/A N/A N/A CALM      29.93S
OSCODA         PTCLDY    57  54  89 CALM      29.93R
PELLSTON       CLOUDY    61  52  72 S3        29.90S
ROGERS CITY    MOCLDY    62  56  82 S5        29.91F
TRAVERSE CITY  MOCLDY    63  49  60 CALM      29.90S
$$
MIZ007>008-015-040600-
EASTERN UPPER MICHIGAN

CITY           SKY/WX    TMP DP  RH WIND       PRES   REMARKS
KINROSS        PTCLDY    59  54  82 SW5       29.89S
MACKINAC ISLAN PTCLDY    60  53  77 CALM      29.90R
NEWBERRY       CLEAR     51  50  97 CALM      29.89R
S. S. MARIE    CLEAR     58  53  84 CALM      29.88S
MUNISING         N/A     56  54  93 CALM      29.89R
$$
MIZ004>006-011>014-085-040600-
CENTRAL UPPER MICHIGAN

CITY           SKY/WX    TMP DP  RH WIND       PRES   REMARKS
MANISTIQUE     PTCLDY    56  53  88 SW3       29.88R
ESCANABA       PTCLDY    59  57  94 CALM      29.88S
MENOMINEE      CLEAR     64  54  68 W3        29.88S
SAWYER-GWINN   CLEAR     56  54  93 CALM      29.91S
$$
MIZ001>003-009>011-084-040600-
WESTERN UPPER MICHIGAN

CITY           SKY/WX    TMP DP  RH WIND       PRES   REMARKS
IRON MOUNTAIN  CLEAR     58  55  90 N5        29.89S
HOUGHTON       CLEAR     60  56  86 E5        29.91R
COPPER HARBOR    N/A     59  56  89 W3        29.90R
IRONWOOD       CLEAR     59  59 100 CALM      29.89S
$$

ABBREVIATIONS USED IN REMARKS
   TC - TEMPERATURE IN CELSIUS
  WCI - WIND CHILL INDEX
   HX - HEAT INDEX
  VSB - VISIBILITY



USA.gov is the U.S. government's official web portal to all federal, state and local government web resources and services.